Location: Bambrugge
(50.9212°N, 3.9299°E)
Time: 02:08:55
(UTC+00:00)

Cosmos 1741 Rocket - Pass Details

Date: 23 May 2024
Orbit: 758 x 781 km, 74.0° (Epoch: 21 June)

Event Time Altitude Azimuth Distance (km) Brightness Sun altitude
Exits shadow 01:51:23 18° 197° (SSW) 1,827 5.3 -12.9°
Maximum altitude 01:55:21 80° 112° (ESE) 785 4.1 -12.6°
Drops below altitude 10° 02:00:38 10° 26° (NNE) 2,325 8.0 -12.1°
Sets 02:03:02 0° 26° (NNE) 3,260 9.3 -11.9°
